Stations météo

Publicité
Lille, France (7015): Température de l'air & dewpoint: 10.07.2019 00:00:00 - 16.07.2019 00:00:00 (CEST)Lille, France (7015): Température de l'air 5cm: 10.07.2019 00:00:00 - 16.07.2019 00:00:00 (CEST)Lille, France (7015): Température de l'air -20cm & Température de l'air -100cm: 10.07.2019 00:00:00 - 16.07.2019 00:00:00 (CEST)Lille, France (7015): Vitesse du vent & gusts: 10.07.2019 00:00:00 - 16.07.2019 00:00:00 (CEST)Lille, France (7015): Direction du vent: 10.07.2019 00:00:00 - 16.07.2019 00:00:00 (CEST)Lille, France (7015): reduced air pressure: 10.07.2019 00:00:00 - 16.07.2019 00:00:00 (CEST)Lille, France (7015): visibility: 10.07.2019 00:00:00 - 16.07.2019 00:00:00 (CEST)Lille, France (7015): Quantités de précipitations: 10.07.2019 00:00:00 - 16.07.2019 00:00:00 (CEST)
Date & Time tt [°C] td [°C] tt 5cm [°C] tt -20cm [°C] tt -100cm [°C] ff [km/h] ff [knt] fx [km/h] fx [knt] dd ppp [hPa] vv [km] rr [mm]
16.07.2019 00:00:00 15,7 10,0 15,6 19,9 18,4 12 6 22 12 N 1021,0 60 0,0
15.07.2019 23:00:00 16,0 10,7 16,0 20,1 18,3 11 6 20 11 NNE 1021,1 60 0,0
15.07.2019 22:00:00 16,3 10,6 16,3 20,5 18,4 14 8 23 12 N 1020,9 60 0,0
15.07.2019 21:00:00 16,5 10,8 16,8 20,9 18,4 14 8 32 17 N 1020,7 59 0,0
15.07.2019 20:00:00 17,1 10,5 17,6 21,2 18,4 23 12 33 18 N 1020,5 42 0,0
15.07.2019 19:00:00 18,4 10,7 19,7 21,2 18,4 21 12 36 19 N 1020,4 26 0,0
15.07.2019 18:00:00 19,7 9,3 21,8 20,8 18,3 11 6 31 17 N 1020,5 38 0,0
15.07.2019 17:00:00 19,9 9,5 22,7 20,1 18,4 12 7 28 15 NNW 1020,9 38 0,0
15.07.2019 16:00:00 19,0 10,0 21,5 19,8 18,4 14 7 27 15 NNW 1021,1 40 0,0
15.07.2019 15:00:00 18,2 10,6 19,2 19,6 18,4 17 9 32 17 N 1021,1 31 0,0
15.07.2019 14:00:00 18,0 10,8 18,7 19,3 18,4 17 9 27 15 N 1021,2 31 0,0
15.07.2019 13:00:00 17,7 11,0 18,3 19,1 18,4 13 7 21 11 NNW 1021,2 45 0,0
15.07.2019 12:00:00 16,5 11,0 18,1 18,9 18,3 14 8 21 11 N 1021,2 45 0,0
15.07.2019 11:00:00 17,4 9,6 18,3 18,7 18,4 10 5 22 12 NE 1021,2 48 0,0
15.07.2019 10:00:00 16,3 9,5 16,5 18,4 18,4 7 4 22 12 NNE 1021,3 55 0,0
15.07.2019 09:00:00 15,5 10,5 16,3 18,3 18,4 11 6 16 9 N 1021,2 40 0,0
15.07.2019 08:00:00 14,9 9,9 14,1 18,2 18,4 7 4 12 7 N 1020,9 47 0,0
15.07.2019 07:00:00 13,4 10,2 12,4 18,2 18,4 4 2 9 5 WSW 1020,9 31 0,0
15.07.2019 06:00:00 12,6 10,0 11,7 18,4 18,4 5 3 11 6 N 1021,0 37 0,0
15.07.2019 05:00:00 12,3 9,7 10,9 18,5 18,4 8 4 10 5 NNW 1020,9 39 0,0
15.07.2019 04:00:00 12,8 9,8 11,8 18,7 18,4 6 3 11 6 N 1021,0 44 0,0
15.07.2019 03:00:00 12,3 9,3 10,4 19,0 18,4 9 5 15 8 NNW 1021,5 48 0,0
15.07.2019 02:00:00 12,2 9,0 10,6 19,3 18,4 8 4 19 10 N 1021,6 10 0,0
15.07.2019 01:00:00 12,9 9,3 11,7 19,8 18,4 10 6 25 14 N 1021,7 56 0,0
15.07.2019 00:00:00 14,0 9,4 13,3 20,2 18,4 16 8 32 17 N 1021,8 59 0,0
14.07.2019 23:00:00 14,8 10,0 14,2 20,7 18,4 22 12 39 21 N 1021,6 60 0,0
14.07.2019 22:00:00 15,7 10,5 15,3 21,2 18,4 18 10 35 19 N 1021,2 60 0,0
14.07.2019 21:00:00 17,5 10,4 18,0 21,6 18,4 21 11 34 19 N 1021,1 38 0,0
14.07.2019 20:00:00 17,9 10,5 18,6 22,0 18,4 23 12 36 20 N 1021,0 35 0,0
14.07.2019 19:00:00 19,5 11,0 21,5 22,0 18,4 24 13 42 23 NNW 1020,8 31 0,0
14.07.2019 18:00:00 19,0 10,5 20,9 21,7 18,4 26 14 48 26 N 1020,6 39 0,0
14.07.2019 17:00:00 20,2 11,4 20,8 21,3 18,4 23 13 38 20 N 1020,7 51 0,0
14.07.2019 16:00:00 19,2 10,5 21,6 21,1 18,4 24 13 37 20 N 1020,9 57 0,0
14.07.2019 15:00:00 19,2 11,0 20,1 20,8 18,4 23 13 38 20 NNW 1021,2 51 0,0
14.07.2019 14:00:00 19,9 10,0 21,5 20,6 18,4 20 11 37 20 N 1021,1 48 0,0
14.07.2019 13:00:00 20,5 10,0 19,2 20,2 18,4 23 13 40 21 N 1021,1 40 0,0
14.07.2019 12:00:00 18,0 11,1 19,2 19,7 18,4 21 11 41 22 NNE 1021,6 38 0,0
14.07.2019 11:00:00 18,0 12,4 17,0 19,3 18,4 18 10 34 18 N 1021,6 18 0,0
14.07.2019 10:00:00 17,3 12,0 16,8 19,1 18,4 14 8 32 17 NE 1021,4 48 0,0
14.07.2019 09:00:00 15,9 11,3 16,3 19,1 18,4 20 11 30 16 N 1021,2 37 0,0
14.07.2019 08:00:00 15,4 11,4 15,5 19,1 18,4 18 10 25 13 N 1020,9 46 0,0
14.07.2019 07:00:00 15,4 11,4 15,4 19,2 18,4 13 7 27 15 N 1020,6 60 0,0
14.07.2019 06:00:00 15,6 10,8 15,5 19,4 18,4 12 7 24 13 N 1020,5 58 0,0
14.07.2019 05:00:00 15,5 10,7 15,5 19,5 18,4 18 10 32 17 NNE 1020,8 53 0,0
14.07.2019 04:00:00 15,6 11,0 15,5 19,7 18,4 10 5 27 15 NNE 1021,2 49 0,0
14.07.2019 03:00:00 15,7 11,7 15,7 19,8 18,4 15 8 27 15 NNE 1021,4 48 0,0
14.07.2019 02:00:00 15,9 12,1 15,1 20,0 18,4 13 7 26 14 NNE 1021,3 60 0,0
14.07.2019 01:00:00 14,9 11,5 13,4 20,3 18,4 8 5 15 8 N 1021,3 39 0,0
14.07.2019 00:00:00 14,4 11,0 13,7 20,8 18,4 10 5 22 12 N 1021,7 12 0,0
13.07.2019 23:00:00 15,0 11,0 14,3 21,3 18,4 15 8 30 16 N 1021,5 57 0,0
13.07.2019 22:00:00 16,2 11,1 15,6 21,8 18,4 17 9 31 17 N 1021,4 60 0,0
13.07.2019 21:00:00 18,0 11,3 18,8 22,2 18,4 24 13 36 19 NNW 1020,9 21 0,0
13.07.2019 20:00:00 19,8 12,3 20,9 22,3 18,4 21 11 39 21 NNW 1020,6 26 0,0
13.07.2019 19:00:00 19,7 12,2 21,2 22,3 18,4 22 12 40 22 NNW 1020,6 34 0,0
13.07.2019 18:00:00 21,4 12,8 22,7 21,8 18,4 21 11 41 22 NW 1020,6 45 0,0
13.07.2019 17:00:00 19,3 13,7 20,4 21,8 18,4 21 11 32 18 NNW 1021,1 46 0,0
13.07.2019 16:00:00 19,2 13,4 18,4 21,9 18,4 16 8 35 19 NW 1021,1 32 0,0
13.07.2019 15:00:00 18,5 13,6 20,1 21,9 18,4 24 13 39 21 NW 1021,1 42 0,0
13.07.2019 14:00:00 20,7 13,2 24,5 21,5 18,4 26 14 39 21 NNW 1020,7 45 0,0
13.07.2019 13:00:00 21,3 14,2 24,1 20,8 18,4 18 10 31 17 NW 1020,4 40 0,0
13.07.2019 12:00:00 20,1 13,5 23,2 20,2 18,3 16 9 32 17 NW 1020,3 44 0,0
13.07.2019 11:00:00 19,2 13,4 21,1 19,8 18,4 20 11 31 17 NNW 1020,2 38 0,0
13.07.2019 10:00:00 17,8 13,5 16,9 19,6 18,3 18 10 29 16 NW 1020,1 55 0,0
13.07.2019 09:00:00 17,1 13,6 16,7 19,5 18,4 16 9 30 16 NNW 1019,8 54 0,0
13.07.2019 08:00:00 16,6 14,2 16,5 19,6 18,4 13 7 21 11 NW 1019,4 31 0,0
13.07.2019 07:00:00 16,3 14,3 15,9 19,6 18,4 15 8 24 13 NW 1018,9 25 0,0
13.07.2019 06:00:00 16,1 14,3 15,7 19,7 18,4 9 5 22 12 W 1018,6 14 0,0
13.07.2019 05:00:00 16,2 14,0 14,8 19,8 18,4 13 7 22 12 NW 1018,4 20 0,0
13.07.2019 04:00:00 15,5 13,9 14,4 20,1 18,4 9 5 22 12 NW 1017,9 17 0,0
13.07.2019 03:00:00 15,8 13,6 15,0 20,4 18,4 13 7 22 12 NNW 1017,9 21 0,0
13.07.2019 02:00:00 16,1 13,4 12,6 20,7 18,3 13 7 21 11 NNW 1017,8 16 0,0
13.07.2019 01:00:00 16,0 12,9 12,9 21,2 18,4 6 3 11 6 WNW 1017,6 24 0,0
13.07.2019 00:00:00 17,3 12,8 14,7 21,6 18,3 10 5 19 10 NNW 1017,4 33 0,0
12.07.2019 23:00:00 18,2 13,9 17,2 22,1 18,3 11 6 21 11 WNW 1016,9 43 0,0
12.07.2019 22:00:00 20,0 14,1 19,7 22,5 18,3 12 7 21 11 W 1016,3 58 0,0
12.07.2019 21:00:00 21,2 11,5 21,2 23,0 18,3 16 8 34 18 NW 1015,5 57 0,0
12.07.2019 20:00:00 21,7 11,4 21,9 23,3 18,3 24 13 44 24 NW 1014,8 22 0,0
12.07.2019 19:00:00 22,7 11,4 23,9 23,3 18,3 22 12 50 27 NW 1014,4 13 0,0
12.07.2019 18:00:00 22,7 11,7 24,1 23,3 18,3 24 13 45 24 NW 1014,2 10 0,0
12.07.2019 17:00:00 23,7 11,4 24,2 23,2 18,3 29 16 46 25 NW 1014,2 4,9 0,0
12.07.2019 16:00:00 23,2 12,8 24,3 22,7 18,3 31 17 46 25 NW 1013,7 4,4 0,0
12.07.2019 15:00:00 21,4 17,6 18,2 22,6 18,3 26 14 57 31 NW 1013,6 4,4 0,8
12.07.2019 14:00:00 20,9 15,4 20,1 22,4 18,3 22 12 49 26 W 1013,2 11 0,0
12.07.2019 13:00:00 23,2 13,4 24,7 21,9 18,3 28 15 44 24 W 1012,9 28 0,0
12.07.2019 12:00:00 23,9 14,6 24,3 21,0 18,3 21 11 36 19 W 1012,6 34 0,0
12.07.2019 11:00:00 22,3 14,7 23,0 20,4 18,3 20 11 33 18 W 1012,8 37 0,0
12.07.2019 10:00:00 21,5 15,1 22,1 19,9 18,3 18 10 28 15 W 1012,8 26 0,0
12.07.2019 09:00:00 19,5 15,4 18,9 19,7 18,3 14 7 22 12 W 1012,7 35 0,0
12.07.2019 08:00:00 16,7 14,3 15,1 19,6 18,3 16 9 23 13 W 1012,4 18 0,0
12.07.2019 07:00:00 14,6 13,3 13,2 19,8 18,3 5 3 7 4 SW 1012,2 7 0,0
12.07.2019 06:00:00 14,0 12,7 12,1 20,1 18,3 5 3 7 4 SSW 1012,0 4,6 0,0
12.07.2019 05:00:00 14,5 12,4 13,2 20,4 18,3 5 3 5 3 S 1011,9 10 0,0
12.07.2019 04:00:00 14,8 11,4 13,0 20,7 18,3 3 2 10 5 S 1012,2 20 0,0
12.07.2019 03:00:00 14,8 11,0 13,3 21,1 18,3 9 5 16 8 WSW 1012,7 22 0,0
12.07.2019 02:00:00 16,0 10,3 15,1 21,5 18,3 9 5 15 8 SW 1012,7 46 0,0
12.07.2019 01:00:00 17,2 9,9 16,3 21,9 18,3 8 4 14 7 W 1013,3 60 0,0
12.07.2019 00:00:00 18,4 9,2 16,4 22,5 18,3 11 6 15 8 W 1013,0 60 0,0
11.07.2019 23:00:00 19,5 9,4 18,3 23,0 18,3 13 7 16 9 W 1012,7 60 0,0
11.07.2019 22:00:00 21,2 10,1 20,5 23,6 18,2 11 6 16 9 W 1012,5 60 0,0
11.07.2019 21:00:00 22,8 9,2 22,8 24,1 18,3 11 6 22 12 W 1012,3 57 0,0
11.07.2019 20:00:00 23,7 7,3 23,9 24,6 18,2 15 8 34 18 W 1012,4 40 0,0
11.07.2019 19:00:00 26,3 7,8 26,9 24,6 18,2 22 12 37 20 W 1012,4 28 0,0
11.07.2019 18:00:00 26,1 10,3 28,5 24,4 18,2 19 10 44 24 W 1012,3 23 0,0
11.07.2019 17:00:00 24,8 11,4 28,5 23,9 18,2 16 8 32 17 W 1012,7 28 0,0
11.07.2019 16:00:00 25,1 12,0 27,8 22,8 18,2 16 9 30 16 WNW 1013,0 20 0,0
11.07.2019 15:00:00 23,3 12,0 25,8 22,1 18,2 16 9 27 14 W 1013,2 48 0,0
11.07.2019 14:00:00 22,7 10,8 24,2 21,7 18,2 18 10 28 15 W 1013,3 48 0,0
11.07.2019 13:00:00 22,6 10,7 24,3 21,4 18,2 19 10 27 14 W 1013,4 44 0,0
11.07.2019 12:00:00 22,4 10,2 23,9 20,9 18,2 13 7 30 16 W 1013,4 42 0,0
11.07.2019 11:00:00 22,4 9,9 22,3 20,5 18,2 16 8 26 14 WSW 1013,5 49 0,0
11.07.2019 10:00:00 20,1 10,5 19,9 20,2 18,2 11 6 27 15 SW 1013,6 43 0,0
11.07.2019 09:00:00 18,4 13,0 17,7 20,1 18,2 9 5 16 8 SW 1013,6 27 0,0
11.07.2019 08:00:00 17,0 12,3 16,6 20,2 18,2 3 2 10 5 W 1013,6 30 0,0
11.07.2019 07:00:00 16,6 12,9 16,2 20,4 18,2 6 3 11 6 W 1014,0 25 0,0
11.07.2019 06:00:00 16,9 13,2 16,4 20,5 18,2 5 3 10 5 WSW 1014,1 26 0,0
11.07.2019 05:00:00 17,3 13,6 16,9 20,8 18,2 8 5 12 6 WNW 1014,4 27 0,0
11.07.2019 04:00:00 17,6 13,9 16,9 21,0 18,2 10 5 11 6 WNW 1014,6 25 0,0
11.07.2019 03:00:00 17,7 14,2 16,0 21,3 18,2 7 4 8 5 WNW 1014,9 22 0,0
11.07.2019 02:00:00 18,0 14,1 16,6 21,5 18,2 3 2 5 3 SSE 1015,3 27 0,0
11.07.2019 01:00:00 18,4 14,1 16,5 21,9 18,2 3 1 4 2 S 1015,8 29 0,0
11.07.2019 00:00:00 19,4 14,4 16,2 22,3 18,2 3 1 5 3 SSW 1016,1 27 0,0
10.07.2019 23:00:00 19,7 14,5 17,7 22,8 18,2 3 2 7 4 S 1016,3 31 0,0
10.07.2019 22:00:00 21,4 13,6 19,4 23,2 18,2 4 2 8 4 SE 1016,7 40 0,0
10.07.2019 21:00:00 22,3 14,2 22,8 23,6 18,2 4 2 15 8 N 1017,2 51 0,0
10.07.2019 20:00:00 22,6 14,4 23,4 24,0 18,2 11 6 19 10 N 1017,4 46 0,0
10.07.2019 19:00:00 23,1 14,1 23,9 24,4 18,2 13 7 22 12 N 1017,5 42 0,0
10.07.2019 18:00:00 24,6 13,5 25,7 24,6 18,2 8 4 23 12 WSW 1017,6 46 0,0
10.07.2019 17:00:00 25,3 13,2 27,7 24,4 18,2 11 6 21 11 W 1018,1 53 0,0
10.07.2019 16:00:00 25,6 13,1 30,1 23,7 18,2 8 4 22 12 WSW 1018,5 25 0,0
10.07.2019 15:00:00 24,9 12,1 28,2 22,7 18,2 7 4 26 14 W 1019,0 45 0,0
10.07.2019 14:00:00 23,9 11,2 26,9 21,9 18,2 8 4 20 11 SW 1019,5 33 0,0
10.07.2019 13:00:00 22,7 10,8 24,9 21,3 18,2 9 5 27 15 W 1020,0 30 0,0
10.07.2019 12:00:00 22,2 10,7 25,7 20,5 18,2 7 4 21 11 SSW 1020,3 33 0,0
10.07.2019 11:00:00 20,9 9,2 23,3 19,8 18,2 6 4 16 9 S 1020,4 20 0,0
10.07.2019 10:00:00 19,1 9,3 19,6 19,4 18,2 9 5 16 9 S 1020,6 36 0,0
10.07.2019 09:00:00 16,8 9,7 16,2 19,2 18,2 7 4 12 6 S 1020,8 39 0,0
10.07.2019 08:00:00 15,1 10,1 15,0 19,2 18,2 8 4 11 6 SE 1020,5 23 0,0
10.07.2019 07:00:00 14,6 9,0 14,5 19,3 18,2 3 2 8 4 ESE 1020,6 27 0,0
10.07.2019 06:00:00 14,6 8,8 14,1 19,5 18,2 0 0 5 3 N 1021,2 45 0,0
10.07.2019 05:00:00 14,3 8,3 13,1 19,6 18,2 0 0 5 3 N 1021,0 58 0,0
10.07.2019 04:00:00 14,3 8,0 12,0 19,8 18,2 3 1 6 4 E 1021,0 60 0,0
10.07.2019 03:00:00 14,9 7,4 12,0 20,2 18,2 5 3 8 4 NE 1021,2 53 0,0
10.07.2019 02:00:00 15,3 7,6 11,8 20,5 18,2 6 3 7 4 NE 1021,4 60 0,0
10.07.2019 01:00:00 15,2 7,5 10,1 21,0 18,3 4 2 6 3 NNE 1021,2 57 0,0
10.07.2019 00:00:00 16,4 8,1 12,0 21,5 18,2 5 3 15 8 NE 1021,3 60 0,0

tt = Température de l'air
td = dewpoint
tt 5cm = Température de l'air 5cm
tt -20cm = Température de l'air -20cm
tt -100cm = Température de l'air -100cm
ff = Vitesse du vent
fx = gusts
dd = Direction du vent
ppp = reduced air pressure
vv = visibility
rr = Quantités de précipitations

stations d'obs. à proximité